Cheyenne — 9HAK5 — position and weather

sailwx.info

Track history (hours):
 
Tides and Currents Weather Stations Pressure Air Temp Water Temp Dewpoint Dewpoint Depression Visibility Wind Speed Wind Dir Waves Ship Positions

Cheyenne

Last reported at 2014-Jul-22 04:21 UTC. Time now 2014-Jul-23 05:46 UTC.
Position N 36°27' E 027°06'.

Length 133 m; draft 3.9 m.

Type: Cargo ship. MMSI: 249607000.

Date/timePositionNaut miles runAvg speedWind from/ knotsBaromVisibWave heightAir tempDewpointWater temp
2014-Jul-22 04:21N 36°27' E 027°06'15 8.1
2014-Jul-22 02:29N 36°39' E 026°54'10 8.5
2014-Jul-22 01:21N 36°46' E 026°47'7 8.5
2014-Jul-22 00:29N 36°52' E 026°42'17 8.1
2014-Jul-21 22:22N 37°05' E 026°28'7 8.1
2014-Jul-21 21:33N 37°10' E 026°22'8 8.2
2014-Jul-21 20:32N 37°16' E 026°14'2 8.4
2014-Jul-21 20:17N 37°17' E 026°12'6 8.1
2014-Jul-21 19:33N 37°21' E 026°07'8 7.8
2014-Jul-21 18:33N 37°26' E 025°60'8 7.8
2014-Jul-21 17:33N 37°33' E 025°54'17 8.1
2014-Jul-21 15:25N 37°50' E 025°51'45 8.4
2014-Jul-21 10:05N 38°34' E 025°45'6 8.7
2014-Jul-21 09:24N 38°40' E 025°45'  
2014-Jul-17 20:32N 44°23' E 034°13'8 8.4
2014-Jul-17 19:33N 44°26' E 034°24'8 8.4
2014-Jul-17 18:33N 44°29' E 034°35'8 8.1
2014-Jul-17 17:33N 44°31' E 034°46'8 8.0
2014-Jul-17 16:33N 44°34' E 034°57'8 7.9
2014-Jul-17 15:33N 44°36' E 035°07'8 8.0
2014-Jul-17 14:33N 44°39' E 035°18'8 7.9
2014-Jul-17 13:33N 44°42' E 035°28'8 7.9
2014-Jul-17 12:33N 44°44' E 035°39'8 8.1
2014-Jul-17 11:33N 44°47' E 035°50'8 8.2
2014-Jul-17 10:33N 44°49' E 036°01'8 8.3
2014-Jul-17 09:33N 44°52' E 036°12'10 8.4
2014-Jul-17 08:23N 44°56' E 036°25'6 7.1
2014-Jul-17 07:33N 45°01' E 036°29'  
Track history (hours):
 
Tides and Currents Weather Stations Pressure Air Temp Water Temp Dewpoint Dewpoint Depression Visibility Wind Speed Wind Dir Waves Ship Positions

Cheyenne

Last reported at 2014-Jul-22 04:21 UTC. Time now 2014-Jul-23 05:46 UTC.
Position N 36°27' E 027°06'.

Length 133 m; draft 3.9 m.

Type: Cargo ship. MMSI: 249607000.

Date/timePositionNaut miles runAvg speedWind from/ knotsBaromVisibWave heightAir tempDewpointWater temp
2014-Jul-22 04:21N 36°27' E 027°06'15 8.1
2014-Jul-22 02:29N 36°39' E 026°54'10 8.5
2014-Jul-22 01:21N 36°46' E 026°47'7 8.5
2014-Jul-22 00:29N 36°52' E 026°42'17 8.1
2014-Jul-21 22:22N 37°05' E 026°28'7 8.1
2014-Jul-21 21:33N 37°10' E 026°22'8 8.2
2014-Jul-21 20:32N 37°16' E 026°14'2 8.4
2014-Jul-21 20:17N 37°17' E 026°12'6 8.1
2014-Jul-21 19:33N 37°21' E 026°07'8 7.8
2014-Jul-21 18:33N 37°26' E 025°60'8 7.8
2014-Jul-21 17:33N 37°33' E 025°54'17 8.1
2014-Jul-21 15:25N 37°50' E 025°51'45 8.4
2014-Jul-21 10:05N 38°34' E 025°45'6 8.7
2014-Jul-21 09:24N 38°40' E 025°45'  
2014-Jul-17 20:32N 44°23' E 034°13'8 8.4
2014-Jul-17 19:33N 44°26' E 034°24'8 8.4
2014-Jul-17 18:33N 44°29' E 034°35'8 8.1
2014-Jul-17 17:33N 44°31' E 034°46'8 8.0
2014-Jul-17 16:33N 44°34' E 034°57'8 7.9
2014-Jul-17 15:33N 44°36' E 035°07'8 8.0
2014-Jul-17 14:33N 44°39' E 035°18'8 7.9
2014-Jul-17 13:33N 44°42' E 035°28'8 7.9
2014-Jul-17 12:33N 44°44' E 035°39'8 8.1
2014-Jul-17 11:33N 44°47' E 035°50'8 8.2
2014-Jul-17 10:33N 44°49' E 036°01'8 8.3
2014-Jul-17 09:33N 44°52' E 036°12'10 8.4
2014-Jul-17 08:23N 44°56' E 036°25'6 7.1
2014-Jul-17 07:33N 45°01' E 036°29'  

Dump ship's entire track history